Check out our new BloomSky Weather System.

Active alerts


No alerts


Thunder radar  blitzortung!


Rain radar more information rain snow radar


Visit our other weather sites:

Template documentation
and downloads

And another site



Weather Underground History page Text

Daily Summary for July 7, 2017 Units:  Metric    English   Both
« Previous Day
Next Day »
Daily Weekly Monthly Yearly Custom
  High: Low: Average:
Temperature: 36.9 °C 24.6 °C 30.1 °C
Dew Point: 26.6 °C 22.4 °C 24.3 °C
Humidity: 94 % 44 % 73 %
Wind Speed: 16.1 km/h 0 km/h 2.9 km/h
Wind Gust: 22.5 km/h - -
Wind:- - South
Pressure: 1019.5 hPa 1015.5 hPa -
Precipitation: 0 mm    
Historical Graphs
 
 
Tabular Data for July 7, 2017
Time Temperature Dew Point Pressure Wind Wind Speed Wind Gust Humidity Rainfall Rate (Hourly)
00:03 27.9 °C 24.5 °C 1017.8 hPa SSE 1.6 km/h 9.7 km/h 82 % 0 mm
00:08 27.9 °C 24.5 °C 1017.8 hPa SSE 1.6 km/h 8 km/h 82 % 0 mm
00:13 27.8 °C 24.6 °C 1017.8 hPa Calm   6.4 km/h 83 % 0 mm
00:18 27.8 °C 24.6 °C 1017.8 hPa South 1.6 km/h 6.4 km/h 83 % 0 mm
00:23 27.7 °C 24.5 °C 1017.8 hPa Calm   6.4 km/h 83 % 0 mm
00:28 27.6 °C 24.6 °C 1017.8 hPa SSE 4.8 km/h 6.4 km/h 84 % 0 mm
00:33 27.6 °C 24.6 °C 1017.8 hPa SSE 3.2 km/h 11.3 km/h 84 % 0 mm
00:38 27.6 °C 24.6 °C 1017.8 hPa SSE 3.2 km/h 11.3 km/h 84 % 0 mm
00:43 27.6 °C 24.6 °C 1017.8 hPa Calm   11.3 km/h 84 % 0 mm
00:48 27.4 °C 24.5 °C 1017.8 hPa SE 1.6 km/h 11.3 km/h 84 % 0 mm
00:54 27.4 °C 24.7 °C 1017.8 hPa Calm   3.2 km/h 85 % 0 mm
00:59 27.3 °C 24.6 °C 1017.8 hPa SE 3.2 km/h 3.2 km/h 85 % 0 mm
01:04 27.2 °C 24.5 °C 1017.8 hPa Calm   6.4 km/h 85 % 0 mm
01:09 27.2 °C 24.7 °C 1017.8 hPa SSE 3.2 km/h 6.4 km/h 86 % 0 mm
01:14 27.2 °C 24.7 °C 1017.8 hPa South 1.6 km/h 6.4 km/h 86 % 0 mm
01:19 27.1 °C 24.6 °C 1017.8 hPa SSW 1.6 km/h 6.4 km/h 86 % 0 mm
01:24 27.1 °C 24.6 °C 1017.8 hPa South 3.2 km/h 4.8 km/h 86 % 0 mm
01:29 27.1 °C 24.6 °C 1017.8 hPa Calm   4.8 km/h 86 % 0 mm
01:34 27 °C 24.5 °C 1017.8 hPa Calm   4.8 km/h 86 % 0 mm
01:39 26.9 °C 24.4 °C 1017.8 hPa Calm   4.8 km/h 86 % 0 mm
01:44 26.8 °C 24.5 °C 1017.8 hPa Calm   4.8 km/h 87 % 0 mm
01:49 26.8 °C 24.5 °C 1017.8 hPa Calm   3.2 km/h 87 % 0 mm
01:54 26.7 °C 24.4 °C 1017.5 hPa Calm   3.2 km/h 87 % 0 mm
01:59 26.7 °C 24.4 °C 1017.5 hPa Calm   3.2 km/h 87 % 0 mm
02:04 26.6 °C 24.4 °C 1017.8 hPa Calm   3.2 km/h 88 % 0 mm
02:09 26.5 °C 24.3 °C 1017.8 hPa Calm   1.6 km/h 88 % 0 mm
02:14 26.4 °C 24.2 °C 1017.8 hPa Calm   1.6 km/h 88 % 0 mm
02:19 26.3 °C 24.2 °C 1017.8 hPa Calm     88 % 0 mm
02:24 26.2 °C 24.1 °C 1017.8 hPa Calm     88 % 0 mm
02:29 26.2 °C 24.2 °C 1017.8 hPa Calm     89 % 0 mm
02:34 26.1 °C 24.1 °C 1017.8 hPa Calm     89 % 0 mm
02:39 26.2 °C 24.2 °C 1017.8 hPa Calm   3.2 km/h 89 % 0 mm
02:44 26.1 °C 24.1 °C 1017.8 hPa Calm   3.2 km/h 89 % 0 mm
02:49 26.1 °C 24.1 °C 1017.5 hPa South 1.6 km/h 3.2 km/h 89 % 0 mm
02:54 26.1 °C 24.1 °C 1017.5 hPa SSW 3.2 km/h 3.2 km/h 89 % 0 mm
02:59 26.2 °C 24.2 °C 1017.5 hPa South 1.6 km/h 3.2 km/h 89 % 0 mm
03:04 26.2 °C 24.2 °C 1017.5 hPa Calm   3.2 km/h 89 % 0 mm
03:09 26.1 °C 24.1 °C 1017.5 hPa SSW 1.6 km/h 3.2 km/h 89 % 0 mm
03:14 26.1 °C 24.1 °C 1017.5 hPa South 1.6 km/h 3.2 km/h 89 % 0 mm
03:20 26.1 °C 24.1 °C 1017.5 hPa SSW 1.6 km/h 3.2 km/h 89 % 0 mm
03:25 26.1 °C 24.1 °C 1017.5 hPa SSW 1.6 km/h 3.2 km/h 89 % 0 mm
03:30 26.1 °C 24.1 °C 1017.5 hPa SSW 1.6 km/h 3.2 km/h 89 % 0 mm
03:35 26 °C 24 °C 1017.5 hPa SSE 1.6 km/h 3.2 km/h 89 % 0 mm
03:40 26 °C 24.2 °C 1017.5 hPa Calm   3.2 km/h 90 % 0 mm
03:45 26 °C 24.2 °C 1017.5 hPa SSW 1.6 km/h 3.2 km/h 90 % 0 mm
03:50 26 °C 24.2 °C 1017.5 hPa Calm   3.2 km/h 90 % 0 mm
03:55 25.9 °C 24.1 °C 1017.5 hPa SSW 1.6 km/h 3.2 km/h 90 % 0 mm
04:00 25.9 °C 24.1 °C 1017.5 hPa SSW 1.6 km/h 3.2 km/h 90 % 0 mm
04:05 25.9 °C 24.1 °C 1017.5 hPa Calm   3.2 km/h 90 % 0 mm
04:10 25.8 °C 24 °C 1017.5 hPa Calm   3.2 km/h 90 % 0 mm
04:15 25.7 °C 23.9 °C 1017.5 hPa Calm   3.2 km/h 90 % 0 mm
04:20 25.6 °C 23.8 °C 1017.5 hPa Calm     90 % 0 mm
04:25 25.6 °C 24 °C 1017.2 hPa SSW 1.6 km/h 1.6 km/h 91 % 0 mm
04:30 25.6 °C 24 °C 1017.2 hPa SSW 1.6 km/h 3.2 km/h 91 % 0 mm
04:35 25.6 °C 24 °C 1017.5 hPa Calm   3.2 km/h 91 % 0 mm
04:40 25.6 °C 24 °C 1017.2 hPa Calm   3.2 km/h 91 % 0 mm
04:45 25.5 °C 23.9 °C 1017.2 hPa Calm   3.2 km/h 91 % 0 mm
04:50 25.5 °C 23.9 °C 1017.5 hPa Calm   3.2 km/h 91 % 0 mm
04:55 25.5 °C 23.9 °C 1017.5 hPa Calm   1.6 km/h 91 % 0 mm
05:00 25.4 °C 23.8 °C 1017.5 hPa Calm   1.6 km/h 91 % 0 mm
05:05 25.3 °C 23.9 °C 1017.5 hPa Calm   1.6 km/h 92 % 0 mm
05:10 25.3 °C 23.9 °C 1017.5 hPa Calm   1.6 km/h 92 % 0 mm
05:15 25.3 °C 23.9 °C 1017.8 hPa Calm   1.6 km/h 92 % 0 mm
05:20 25.2 °C 23.8 °C 1017.8 hPa Calm     92 % 0 mm
05:25 25.2 °C 23.8 °C 1017.8 hPa Calm     92 % 0 mm
05:30 25.2 °C 23.8 °C 1017.8 hPa Calm     92 % 0 mm
05:35 25.2 °C 23.8 °C 1017.8 hPa Calm   1.6 km/h 92 % 0 mm
05:40 25.1 °C 23.7 °C 1017.8 hPa Calm   1.6 km/h 92 % 0 mm
05:45 25 °C 23.8 °C 1017.8 hPa Calm   1.6 km/h 93 % 0 mm
05:50 24.9 °C 23.7 °C 1017.8 hPa Calm     93 % 0 mm
05:55 24.9 °C 23.7 °C 1017.8 hPa Calm     93 % 0 mm
06:00 24.8 °C 23.6 °C 1017.8 hPa Calm     93 % 0 mm
06:05 24.8 °C 23.6 °C 1017.8 hPa Calm   1.6 km/h 93 % 0 mm
06:10 24.8 °C 23.6 °C 1017.8 hPa Calm   1.6 km/h 93 % 0 mm
06:15 24.8 °C 23.6 °C 1018.2 hPa Calm   1.6 km/h 93 % 0 mm
06:20 24.7 °C 23.7 °C 1018.2 hPa Calm   1.6 km/h 94 % 0 mm
06:25 24.7 °C 23.7 °C 1018.2 hPa Calm   1.6 km/h 94 % 0 mm
06:30 24.7 °C 23.7 °C 1018.2 hPa Calm   1.6 km/h 94 % 0 mm
06:35 24.7 °C 23.7 °C 1018.2 hPa Calm   1.6 km/h 94 % 0 mm
06:40 24.6 °C 23.6 °C 1018.2 hPa Calm     94 % 0 mm
06:45 24.6 °C 23.6 °C 1018.2 hPa Calm     94 % 0 mm
06:50 24.6 °C 23.6 °C 1018.5 hPa Calm   1.6 km/h 94 % 0 mm
06:55 24.7 °C 23.7 °C 1018.5 hPa Calm   1.6 km/h 94 % 0 mm
07:00 24.8 °C 23.8 °C 1018.5 hPa Calm   1.6 km/h 94 % 0 mm
07:05 24.9 °C 23.9 °C 1018.5 hPa Calm   1.6 km/h 94 % 0 mm
07:10 25.1 °C 24.1 °C 1018.5 hPa Calm   1.6 km/h 94 % 0 mm
07:15 25.3 °C 24.3 °C 1018.5 hPa Calm     94 % 0 mm
07:20 25.6 °C 24.4 °C 1018.5 hPa Calm   1.6 km/h 93 % 0 mm
07:26 25.8 °C 24.6 °C 1018.8 hPa Calm   1.6 km/h 93 % 0 mm
07:31 26.2 °C 25 °C 1018.8 hPa Calm   1.6 km/h 93 % 0 mm
07:36 26.4 °C 25 °C 1018.8 hPa NW 1.6 km/h 1.6 km/h 92 % 0 mm
07:41 26.8 °C 25.2 °C 1018.8 hPa Calm   1.6 km/h 91 % 0 mm
07:46 27.2 °C 25.4 °C 1018.8 hPa NW 1.6 km/h 1.6 km/h 90 % 0 mm
07:51 27.3 °C 25.1 °C 1018.8 hPa NW 3.2 km/h 4.8 km/h 88 % 0 mm
07:56 27.4 °C 25.2 °C 1018.8 hPa WNW 3.2 km/h 4.8 km/h 88 % 0 mm
08:01 27.6 °C 25.2 °C 1018.8 hPa NW 1.6 km/h 4.8 km/h 87 % 0 mm
08:06 27.8 °C 25.4 °C 1018.8 hPa Calm   4.8 km/h 87 % 0 mm
08:11 28.1 °C 25.3 °C 1018.8 hPa Calm   4.8 km/h 85 % 0 mm
08:16 28.5 °C 25.9 °C 1018.8 hPa West 1.6 km/h 3.2 km/h 86 % 0 mm
08:21 28.9 °C 25.9 °C 1018.8 hPa Calm   3.2 km/h 84 % 0 mm
08:26 29.4 °C 26 °C 1019.2 hPa Calm   3.2 km/h 82 % 0 mm
08:31 29.7 °C 26.1 °C 1019.2 hPa Calm   3.2 km/h 81 % 0 mm
08:36 30.2 °C 26.4 °C 1019.2 hPa Calm   3.2 km/h 80 % 0 mm
08:41 30.7 °C 26.6 °C 1019.2 hPa Calm   3.2 km/h 79 % 0 mm
08:46 30.8 °C 26.1 °C 1019.2 hPa Calm   3.2 km/h 76 % 0 mm
08:51 30.8 °C 26.1 °C 1019.2 hPa Calm   4.8 km/h 76 % 0 mm
08:56 30.9 °C 26.2 °C 1019.5 hPa SSW 6.4 km/h 6.4 km/h 76 % 0 mm
09:01 30.8 °C 25.9 °C 1019.5 hPa Calm   6.4 km/h 75 % 0 mm
09:06 30.8 °C 26.1 °C 1019.5 hPa SW 3.2 km/h 6.4 km/h 76 % 0 mm
09:11 30.6 °C 25.4 °C 1019.5 hPa Calm   6.4 km/h 74 % 0 mm
09:16 30.8 °C 26.1 °C 1019.5 hPa South 4.8 km/h 6.4 km/h 76 % 0 mm
09:21 31.2 °C 26.2 °C 1019.5 hPa SE 3.2 km/h 8 km/h 75 % 0 mm
09:26 31.1 °C 25.5 °C 1019.5 hPa South 3.2 km/h 9.7 km/h 72 % 0 mm
09:31 31.1 °C 25.9 °C 1019.5 hPa SSE 4.8 km/h 9.7 km/h 74 % 0 mm
09:36 31.2 °C 25.8 °C 1019.5 hPa Calm   9.7 km/h 73 % 0 mm
09:41 31.7 °C 26 °C 1019.5 hPa Calm   6.4 km/h 72 % 0 mm
09:46 32.2 °C 26.5 °C 1019.5 hPa West 1.6 km/h 6.4 km/h 72 % 0 mm
09:51 32.8 °C 26.4 °C 1019.5 hPa SE 1.6 km/h 6.4 km/h 69 % 0 mm
09:56 32.7 °C 25.3 °C 1019.5 hPa NW 3.2 km/h 8 km/h 65 % 0 mm
10:01 32.3 °C 25.6 °C 1019.5 hPa SW 1.6 km/h 8 km/h 68 % 0 mm
10:06 32.4 °C 25.5 °C 1019.5 hPa Calm   8 km/h 67 % 0 mm
10:11 32.3 °C 25.6 °C 1019.5 hPa Calm   4.8 km/h 68 % 0 mm
10:17 32.4 °C 25.5 °C 1019.5 hPa Calm   4.8 km/h 67 % 0 mm
10:22 32.5 °C 25.3 °C 1019.5 hPa SSW 6.4 km/h 9.7 km/h 66 % 0 mm
10:27 32.4 °C 25.5 °C 1019.5 hPa SSW 3.2 km/h 9.7 km/h 67 % 0 mm
10:32 32.7 °C 25.3 °C 1019.5 hPa SSW 4.8 km/h 9.7 km/h 65 % 0 mm
10:37 32.9 °C 25.7 °C 1019.5 hPa SSE 1.6 km/h 9.7 km/h 66 % 0 mm
10:42 32.9 °C 25.4 °C 1019.5 hPa Calm   6.4 km/h 65 % 0 mm
10:47 32.7 °C 25.5 °C 1019.5 hPa Calm   6.4 km/h 66 % 0 mm
10:52 32.8 °C 24.6 °C 1019.5 hPa South 4.8 km/h 6.4 km/h 62 % 0 mm
10:57 32.8 °C 25.3 °C 1019.5 hPa SW 1.6 km/h 6.4 km/h 65 % 0 mm
11:02 33.3 °C 25.3 °C 1019.2 hPa Calm   6.4 km/h 63 % 0 mm
11:07 33.6 °C 25.6 °C 1019.5 hPa Calm   8 km/h 63 % 0 mm
11:12 33.5 °C 24.9 °C 1019.2 hPa East 3.2 km/h 9.7 km/h 61 % 0 mm
11:13 33.4 °C 24.6 °C 1019.2 hPa North 3.2 km/h 9.7 km/h 60 % 0 mm
11:18 33 °C 24.2 °C 1019.2 hPa WNW 1.6 km/h 9.7 km/h 60 % 0 mm
11:23 33.3 °C 25 °C 1019.2 hPa NNW 11.3 km/h 11.3 km/h 62 % 0 mm
11:28 33.6 °C 24.8 °C 1019.2 hPa SSW 1.6 km/h 16.1 km/h 60 % 0 mm
11:33 33.6 °C 25 °C 1019.2 hPa Calm   16.1 km/h 61 % 0 mm
11:38 33.3 °C 25 °C 1019.2 hPa Calm   16.1 km/h 62 % 0 mm
11:43 32.9 °C 24.6 °C 1019.2 hPa West 1.6 km/h 9.7 km/h 62 % 0 mm
11:48 32.9 °C 24.6 °C 1019.2 hPa WNW 1.6 km/h 9.7 km/h 62 % 0 mm
11:53 33.1 °C 24.3 °C 1018.8 hPa West 3.2 km/h 9.7 km/h 60 % 0 mm
11:58 33.4 °C 24 °C 1018.8 hPa Calm   9.7 km/h 58 % 0 mm
12:03 33.4 °C 23.4 °C 1018.8 hPa SE 4.8 km/h 8 km/h 56 % 0 mm
12:08 33.6 °C 23.9 °C 1018.8 hPa East 3.2 km/h 9.7 km/h 57 % 0 mm
12:13 34.1 °C 24.7 °C 1018.8 hPa Calm   9.7 km/h 58 % 0 mm
12:18 34.6 °C 24.5 °C 1018.8 hPa SSW 3.2 km/h 9.7 km/h 56 % 0 mm
12:23 34.6 °C 24.2 °C 1018.8 hPa ENE 3.2 km/h 9.7 km/h 55 % 0 mm
12:28 34.3 °C 24 °C 1018.8 hPa South 4.8 km/h 9.7 km/h 55 % 0 mm
12:33 34 °C 24.3 °C 1018.5 hPa South 3.2 km/h 12.9 km/h 57 % 0 mm
12:38 33.9 °C 23.6 °C 1018.5 hPa Calm   12.9 km/h 55 % 0 mm
12:43 34.2 °C 23.6 °C 1018.5 hPa South 4.8 km/h 12.9 km/h 54 % 0 mm
12:48 34.6 °C 23.3 °C 1018.5 hPa Calm   11.3 km/h 52 % 0 mm
12:53 34.7 °C 23.7 °C 1018.5 hPa Calm   11.3 km/h 53 % 0 mm
12:58 34.7 °C 24 °C 1018.2 hPa SE 1.6 km/h 11.3 km/h 54 % 0 mm
13:03 35 °C 24.3 °C 1018.2 hPa NW 1.6 km/h 6.4 km/h 54 % 0 mm
13:08 35.2 °C 23.9 °C 1017.8 hPa NNE 3.2 km/h 11.3 km/h 52 % 0 mm
13:13 35.4 °C 24.7 °C 1017.8 hPa Calm   11.3 km/h 54 % 0 mm
13:18 35.6 °C 23.2 °C 1017.8 hPa SSW 6.4 km/h 11.3 km/h 49 % 0 mm
13:23 35.6 °C 22.9 °C 1017.8 hPa SE 3.2 km/h 14.5 km/h 48 % 0 mm
13:28 35.6 °C 23.2 °C 1017.8 hPa Calm   14.5 km/h 49 % 0 mm
13:34 35.9 °C 22.8 °C 1017.8 hPa South 8 km/h 14.5 km/h 47 % 0 mm
13:39 35.8 °C 22.4 °C 1017.8 hPa SE 3.2 km/h 14.5 km/h 46 % 0 mm
13:44 35.9 °C 24.2 °C 1017.5 hPa Calm   14.5 km/h 51 % 0 mm
13:49 36.1 °C 22.6 °C 1017.5 hPa SSE 8 km/h 14.5 km/h 46 % 0 mm
13:54 35.9 °C 23.5 °C 1017.5 hPa SSW 8 km/h 17.7 km/h 49 % 0 mm
13:59 35.8 °C 23.1 °C 1017.5 hPa SE 3.2 km/h 17.7 km/h 48 % 0 mm
14:04 36.1 °C 23.7 °C 1017.5 hPa ESE 3.2 km/h 17.7 km/h 49 % 0 mm
14:09 36.3 °C 23.5 °C 1017.5 hPa ESE 4.8 km/h 11.3 km/h 48 % 0 mm
14:14 35.7 °C 23 °C 1017.5 hPa East 4.8 km/h 11.3 km/h 48 % 0 mm
14:19 35.2 °C 22.9 °C 1017.2 hPa WNW 3.2 km/h 8 km/h 49 % 0 mm
14:24 34.9 °C 22.9 °C 1017.2 hPa East 1.6 km/h 8 km/h 50 % 0 mm
14:29 34.8 °C 22.8 °C 1017.2 hPa ESE 3.2 km/h 8 km/h 50 % 0 mm
14:34 34.7 °C 22.7 °C 1017.2 hPa ESE 4.8 km/h 8 km/h 50 % 0 mm
14:39 34.6 °C 23 °C 1016.8 hPa ESE 3.2 km/h 6.4 km/h 51 % 0 mm
14:44 34.8 °C 23.5 °C 1016.8 hPa Calm   8 km/h 52 % 0 mm
14:49 35.5 °C 23.1 °C 1016.8 hPa SSE 8 km/h 8 km/h 49 % 0 mm
14:54 36.1 °C 23.7 °C 1016.8 hPa SE 9.7 km/h 11.3 km/h 49 % 0 mm
14:55 36.2 °C 23.8 °C 1016.8 hPa ESE 4.8 km/h 11.3 km/h 49 % 0 mm
15:00 36.3 °C 23.9 °C 1016.5 hPa SW 1.6 km/h 14.5 km/h 49 % 0 mm
15:05 36.5 °C 23.7 °C 1016.5 hPa NW 3.2 km/h 14.5 km/h 48 % 0 mm
15:10 36.9 °C 23 °C 1016.5 hPa ESE 8 km/h 12.9 km/h 45 % 0 mm
15:15 36.7 °C 23.5 °C 1016.5 hPa SE 4.8 km/h 12.9 km/h 47 % 0 mm
15:20 36.6 °C 22.7 °C 1016.1 hPa South 6.4 km/h 12.9 km/h 45 % 0 mm
15:25 36.5 °C 23 °C 1016.1 hPa SE 11.3 km/h 14.5 km/h 46 % 0 mm
15:30 36.3 °C 22.8 °C 1016.1 hPa SSW 9.7 km/h 14.5 km/h 46 % 0 mm
15:35 36.3 °C 23.2 °C 1016.1 hPa South 6.4 km/h 16.1 km/h 47 % 0 mm
15:40 36.6 °C 23.5 °C 1015.8 hPa Calm   16.1 km/h 47 % 0 mm
15:45 36.9 °C 22.6 °C 1015.8 hPa South 8 km/h 16.1 km/h 44 % 0 mm
15:50 36.9 °C 23 °C 1015.8 hPa ESE 3.2 km/h 16.1 km/h 45 % 0 mm
15:55 36.7 °C 23.2 °C 1015.8 hPa SSE 8 km/h 17.7 km/h 46 % 0 mm
16:00 36.5 °C 23 °C 1015.8 hPa SE 4.8 km/h 17.7 km/h 46 % 0 mm
16:05 36.8 °C 23.3 °C 1015.8 hPa ESE 12.9 km/h 17.7 km/h 46 % 0 mm
16:10 36.6 °C 23.5 °C 1015.8 hPa ESE 11.3 km/h 17.7 km/h 47 % 0 mm
16:15 36.2 °C 23.1 °C 1015.8 hPa West 11.3 km/h 17.7 km/h 47 % 0 mm
16:20 35.5 °C 22.8 °C 1015.8 hPa ESE 14.5 km/h 17.7 km/h 48 % 0 mm
16:25 34.9 °C 23.6 °C 1015.8 hPa SE 9.7 km/h 16.1 km/h 52 % 0 mm
16:30 34.5 °C 23.2 °C 1015.8 hPa SE 11.3 km/h 16.1 km/h 52 % 0 mm
16:35 34.5 °C 23.8 °C 1015.8 hPa SSW 11.3 km/h 17.7 km/h 54 % 0 mm
16:40 34.5 °C 23.8 °C 1015.8 hPa SSW 11.3 km/h 19.3 km/h 54 % 0 mm
16:45 34.2 °C 23.9 °C 1015.8 hPa SSE 8 km/h 19.3 km/h 55 % 0 mm
16:50 33.6 °C 24.2 °C 1015.8 hPa South 8 km/h 20.9 km/h 58 % 0 mm
16:55 33.3 °C 23.9 °C 1015.8 hPa SSE 9.7 km/h 20.9 km/h 58 % 0 mm
17:00 33.1 °C 24 °C 1015.8 hPa SSW 3.2 km/h 20.9 km/h 59 % 0 mm
17:02 33.1 °C 23.7 °C 1015.8 hPa SE 6.4 km/h 20.9 km/h 58 % 0 mm
17:07 33 °C 23.9 °C 1015.5 hPa South 3.2 km/h 14.5 km/h 59 % 0 mm
17:12 33 °C 23.6 °C 1015.5 hPa SSE 14.5 km/h 14.5 km/h 58 % 0 mm
17:17 32.9 °C 23 °C 1016.1 hPa South 12.9 km/h 19.3 km/h 56 % 0 mm
17:22 32.7 °C 23.1 °C 1015.8 hPa SSE 6.4 km/h 19.3 km/h 57 % 0 mm
17:27 32.4 °C 23.1 °C 1015.8 hPa South 8 km/h 19.3 km/h 58 % 0 mm
17:32 32.2 °C 22.9 °C 1015.8 hPa SSE 3.2 km/h 17.7 km/h 58 % 0 mm
17:37 32.2 °C 23.4 °C 1015.8 hPa SE 12.9 km/h 17.7 km/h 60 % 0 mm
17:42 32.1 °C 23.4 °C 1016.1 hPa SSE 16.1 km/h 16.1 km/h 60 % 0 mm
17:47 31.4 °C 23 °C 1015.8 hPa South 11.3 km/h 22.5 km/h 61 % 0 mm
17:52 31.1 °C 23.2 °C 1015.5 hPa ESE 11.3 km/h 22.5 km/h 63 % 0 mm
17:57 30.7 °C 22.8 °C 1015.8 hPa South 4.8 km/h 22.5 km/h 63 % 0 mm
18:02 30.5 °C 22.7 °C 1016.1 hPa SSW 4.8 km/h 12.9 km/h 63 % 0 mm
18:07 30.3 °C 23 °C 1016.5 hPa ESE 3.2 km/h 12.9 km/h 65 % 0 mm
18:12 30.2 °C 23.4 °C 1016.1 hPa South 3.2 km/h 12.9 km/h 67 % 0 mm
18:17 30.1 °C 23.5 °C 1016.1 hPa Calm   9.7 km/h 68 % 0 mm
18:22 30 °C 23.4 °C 1016.1 hPa Calm   9.7 km/h 68 % 0 mm
18:27 29.9 °C 23.6 °C 1016.5 hPa Calm   6.4 km/h 69 % 0 mm
18:32 29.8 °C 23.7 °C 1016.1 hPa Calm   6.4 km/h 70 % 0 mm
18:37 29.8 °C 23.7 °C 1016.1 hPa South 1.6 km/h 6.4 km/h 70 % 0 mm
18:42 29.7 °C 23.6 °C 1016.1 hPa Calm   3.2 km/h 70 % 0 mm
18:47 29.8 °C 23.7 °C 1016.1 hPa Calm   4.8 km/h 70 % 0 mm
18:52 29.8 °C 23.7 °C 1015.8 hPa SSE 4.8 km/h 4.8 km/h 70 % 0 mm
18:58 29.9 °C 23.8 °C 1016.1 hPa South 3.2 km/h 4.8 km/h 70 % 0 mm
19:03 30 °C 23.9 °C 1016.1 hPa South 4.8 km/h 6.4 km/h 70 % 0 mm
19:08 30 °C 23.9 °C 1015.8 hPa SSW 3.2 km/h 8 km/h 70 % 0 mm
19:13 30 °C 23.9 °C 1016.1 hPa SSW 6.4 km/h 8 km/h 70 % 0 mm
19:18 30.1 °C 24 °C 1016.1 hPa SSE 1.6 km/h 8 km/h 70 % 0 mm
19:23 30.1 °C 24 °C 1016.1 hPa SSW 4.8 km/h 8 km/h 70 % 0 mm
19:28 30 °C 24.2 °C 1016.1 hPa SSW 3.2 km/h 8 km/h 71 % 0 mm
19:33 29.9 °C 24.1 °C 1016.1 hPa SW 4.8 km/h 8 km/h 71 % 0 mm
19:38 29.8 °C 24.2 °C 1016.1 hPa Calm   8 km/h 72 % 0 mm
19:43 29.8 °C 24.2 °C 1016.1 hPa SE 1.6 km/h 8 km/h 72 % 0 mm
19:48 29.8 °C 24.2 °C 1016.1 hPa SE 3.2 km/h 6.4 km/h 72 % 0 mm
19:53 29.9 °C 24.3 °C 1016.5 hPa Calm   6.4 km/h 72 % 0 mm
19:58 29.9 °C 24.3 °C 1016.1 hPa SE 3.2 km/h 6.4 km/h 72 % 0 mm
20:03 30 °C 24.4 °C 1016.5 hPa South 4.8 km/h 6.4 km/h 72 % 0 mm
20:08 29.9 °C 24.3 °C 1016.5 hPa SSW 4.8 km/h 6.4 km/h 72 % 0 mm
20:13 30 °C 24.6 °C 1016.5 hPa SSE 3.2 km/h 6.4 km/h 73 % 0 mm
20:18 30.1 °C 24.7 °C 1016.5 hPa South 6.4 km/h 6.4 km/h 73 % 0 mm
20:23 30.2 °C 24.8 °C 1016.5 hPa South 6.4 km/h 8 km/h 73 % 0 mm
20:28 30.2 °C 24.8 °C 1016.5 hPa SSW 3.2 km/h 8 km/h 73 % 0 mm
20:33 30.2 °C 24.8 °C 1016.1 hPa SSE 3.2 km/h 8 km/h 73 % 0 mm
20:38 30.2 °C 25 °C 1016.1 hPa SSW 1.6 km/h 9.7 km/h 74 % 0 mm
20:43 30.1 °C 25.2 °C 1016.1 hPa South 3.2 km/h 9.7 km/h 75 % 0 mm
20:48 30 °C 25.1 °C 1016.1 hPa SSE 3.2 km/h 9.7 km/h 75 % 0 mm
20:53 29.9 °C 25.2 °C 1016.1 hPa SSE 3.2 km/h 8 km/h 76 % 0 mm
20:58 29.9 °C 25.2 °C 1016.1 hPa SSE 11.3 km/h 11.3 km/h 76 % 0 mm
21:03 29.8 °C 25.1 °C 1016.1 hPa SW 11.3 km/h 11.3 km/h 76 % 0 mm
21:08 29.8 °C 25.1 °C 1016.1 hPa South 9.7 km/h 14.5 km/h 76 % 0 mm
21:13 29.7 °C 25.2 °C 1016.1 hPa SSE 8 km/h 14.5 km/h 77 % 0 mm
21:19 29.6 °C 25.1 °C 1016.1 hPa South 3.2 km/h 14.5 km/h 77 % 0 mm
21:24 29.6 °C 25.1 °C 1016.1 hPa SW 3.2 km/h 12.9 km/h 77 % 0 mm
21:29 29.5 °C 25 °C 1016.1 hPa SW 3.2 km/h 11.3 km/h 77 % 0 mm
21:34 29.4 °C 25.2 °C 1016.1 hPa SSW 4.8 km/h 14.5 km/h 78 % 0 mm
21:39 29.4 °C 25.2 °C 1016.1 hPa SW 8 km/h 14.5 km/h 78 % 0 mm
21:44 29.4 °C 25.2 °C 1016.1 hPa SE 6.4 km/h 14.5 km/h 78 % 0 mm
21:49 29.3 °C 25.1 °C 1016.1 hPa South 4.8 km/h 11.3 km/h 78 % 0 mm
21:54 29.3 °C 25.3 °C 1016.1 hPa South 3.2 km/h 12.9 km/h 79 % 0 mm
21:59 29.2 °C 25.2 °C 1016.5 hPa South 4.8 km/h 12.9 km/h 79 % 0 mm
22:04 29.1 °C 25.1 °C 1016.5 hPa South 6.4 km/h 12.9 km/h 79 % 0 mm
22:09 29.1 °C 25.1 °C 1016.5 hPa South 3.2 km/h 8 km/h 79 % 0 mm
22:14 29 °C 25.2 °C 1016.8 hPa SSW 6.4 km/h 8 km/h 80 % 0 mm
22:19 28.9 °C 25.1 °C 1016.8 hPa SSE 1.6 km/h 8 km/h 80 % 0 mm
22:24 28.9 °C 25.1 °C 1016.8 hPa SSW 1.6 km/h 8 km/h 80 % 0 mm
22:29 28.8 °C 25 °C 1016.8 hPa South 1.6 km/h 6.4 km/h 80 % 0 mm
22:34 28.8 °C 25.2 °C 1016.8 hPa South 1.6 km/h 6.4 km/h 81 % 0 mm
22:39 28.7 °C 25.1 °C 1017.2 hPa SSW 1.6 km/h 8 km/h 81 % 0 mm
22:44 28.7 °C 25.1 °C 1017.2 hPa Calm   8 km/h 81 % 0 mm
22:49 28.6 °C 25 °C 1017.2 hPa Calm   8 km/h 81 % 0 mm
22:54 28.6 °C 25 °C 1017.2 hPa South 1.6 km/h 3.2 km/h 81 % 0 mm
22:59 28.4 °C 25 °C 1017.2 hPa SSW 4.8 km/h 4.8 km/h 82 % 0 mm
23:04 28.4 °C 25 °C 1017.2 hPa Calm   4.8 km/h 82 % 0 mm
23:09 28.4 °C 25 °C 1017.2 hPa South 3.2 km/h 4.8 km/h 82 % 0 mm
23:14 28.3 °C 24.9 °C 1017.2 hPa SSW 3.2 km/h 4.8 km/h 82 % 0 mm
23:19 28.3 °C 24.9 °C 1017.2 hPa SSW 3.2 km/h 6.4 km/h 82 % 0 mm
23:24 28.3 °C 24.9 °C 1017.2 hPa South 6.4 km/h 6.4 km/h 82 % 0 mm
23:29 28.2 °C 24.8 °C 1017.2 hPa South 4.8 km/h 8 km/h 82 % 0 mm
23:34 28.2 °C 24.8 °C 1017.2 hPa South 9.7 km/h 9.7 km/h 82 % 0 mm
23:39 28.2 °C 24.8 °C 1017.2 hPa SSE 4.8 km/h 11.3 km/h 82 % 0 mm
23:45 28.1 °C 24.7 °C 1017.2 hPa SSE 6.4 km/h 11.3 km/h 82 % 0 mm
23:49 28.1 °C 24.7 °C 1017.2 hPa SSW 3.2 km/h 11.3 km/h 82 % 0 mm
23:54 28.1 °C 24.7 °C 1017.2 hPa SE 3.2 km/h 11.3 km/h 82 % 0 mm
23:59 28 °C 24.6 °C 1017.2 hPa South 3.2 km/h 11.3 km/h 82 % 0 mm
Spring, Texas: Villages of Bridgestone
Compliments of Weather Underground - 2.75 mb

Script developed by  Jim McMurry - jmcmurry@mwt.net Adapted for the template by  Wim van der Kuil - Leuven-Template.eu

You find our weather info also at:

UK Metoffice

WeatherCloud

Weather Underground

Mid-South Weather Network

AWEKAS

Citizen Weather Observer Program (CWOP)

HAMweather, WeatherForYou, PWS Weather

Equipment we use:

Weather-station
Davis Vantage Vue

Weather-program
Meteohub

Weather-server
Debian 7.9 x86 (Guest)

Provider
DreamHost

Davis Vantage Vue

Meteohub

Debian 7.9 x86 (Guest)

DreamHost